| time (UTC) | temp F | wind direction | speed MPH | gust MPH | rain 1hr in | rain 24hr in | rain mn in | humidity % | barometer mb |
| 20260508065237 | 51 | 191 | 4.0 | 15.0 | 0.01 | 0.01 | 0.01 | 68 | 1014.1 |
| 20260508064758 | 50 | 307 | 6.0 | 15.0 | 0.00 | 0.00 | 0.00 | 76 | 1015.6 |
| 20260508064237 | 50 | 316 | 7.0 | 13.0 | 0.00 | 0.00 | 0.00 | 76 | 1015.9 |
| 20260508063737 | 50 | 323 | 6.0 | 13.0 | 0.00 | 0.00 | 0.00 | 75 | 1015.8 |
| 20260508063237 | 50 | 334 | 4.0 | 10.0 | 0.00 | 0.00 | 0.00 | 76 | 1015.5 |
| 20260508062737 | 50 | 350 | 5.0 | 10.0 | 0.00 | 0.00 | 0.00 | 76 | 1015.3 |
| 20260508062237 | 50 | 313 | 4.0 | 9.0 | 0.00 | 0.00 | 0.00 | 76 | 1015.2 |
| 20260508061758 | 50 | 337 | 3.0 | 6.0 | 0.00 | 0.00 | 0.00 | 76 | 1015.0 |
| 20260508061237 | 50 | 24 | 1.0 | 6.0 | 0.00 | 0.00 | 0.00 | 75 | 1014.4 |
| 20260508060737 | 50 | 61 | 3.0 | 6.0 | 0.00 | 0.00 | 0.00 | 74 | 1014.3 |
| 20260508060258 | 51 | 22 | 3.0 | 5.0 | 0.00 | 0.00 | 0.00 | 73 | 1014.4 |
| 20260508055737 | 51 | 23 | 3.0 | 5.0 | 0.00 | 0.00 | 0.00 | 72 | 1014.3 |
| 20260508055237 | 51 | 52 | 2.0 | 5.0 | 0.00 | 0.00 | 0.00 | 71 | 1014.3 |
| 20260508054737 | 51 | 38 | 2.0 | 7.0 | 0.00 | 0.00 | 0.00 | 70 | 1014.4 |
| 20260508054237 | 51 | 54 | 4.0 | 7.0 | 0.00 | 0.00 | 0.00 | 69 | 1014.3 |
| 20260508053737 | 52 | 50 | 3.0 | 7.0 | 0.00 | 0.00 | 0.00 | 68 | 1014.5 |
| 20260508053237 | 52 | 59 | 2.0 | 9.0 | 0.00 | 0.00 | 0.00 | 68 | 1014.5 |
| 20260508052737 | 52 | -1 | 3.0 | 9.0 | 0.00 | 0.00 | 0.00 | 67 | 1014.6 |
| 20260508052237 | 52 | 339 | 3.0 | 15.0 | 0.00 | 0.00 | 0.00 | 67 | 1014.7 |
| 20260508051737 | 53 | 27 | 5.0 | 15.0 | 0.00 | 0.00 | 0.00 | 66 | 1014.9 |
| 20260508051258 | 52 | 14 | 4.0 | 9.0 | 0.00 | 0.00 | 0.00 | 67 | 1015.1 |
| 20260508050737 | 52 | 352 | 4.0 | 7.0 | 0.00 | 0.00 | 0.00 | 68 | 1015.5 |
| 20260508050237 | 52 | 346 | 2.0 | 4.0 | 0.00 | 0.00 | 0.00 | 68 | 1015.6 |
| 20260508045737 | 52 | 31 | 2.0 | 4.0 | 0.00 | 0.00 | 0.00 | 68 | 1015.0 |
| 20260508045258 | 52 | 52 | 1.0 | 3.0 | 0.00 | 0.00 | 0.00 | 68 | 1014.8 |
| 20260508044737 | 52 | 128 | 0.0 | 2.0 | 0.00 | 0.00 | 0.00 | 67 | 1014.8 |
| 20260508044237 | 52 | 128 | 0.0 | 2.0 | 0.00 | 0.00 | 0.00 | 66 | 1014.7 |
| 20260508043758 | 52 | 136 | 0.0 | 3.0 | 0.00 | 0.00 | 0.00 | 65 | 1014.6 |
| 20260508043237 | 53 | 129 | 1.0 | 3.0 | 0.00 | 0.00 | 0.00 | 65 | 1014.6 |
| 20260508042737 | 53 | 103 | 0.0 | 2.0 | 0.00 | 0.00 | 0.00 | 64 | 1014.7 |
| 20260508042237 | 53 | 103 | 0.0 | 2.0 | 0.00 | 0.00 | 0.00 | 63 | 1014.7 |
| 20260508041737 | 53 | 103 | 0.0 | 2.0 | 0.00 | 0.00 | 0.00 | 63 | 1014.6 |
| 20260508041237 | 53 | 103 | 0.0 | 2.0 | 0.00 | 0.00 | 0.00 | 62 | 1014.6 |
| 20260508040737 | 54 | 103 | 0.0 | 2.0 | 0.00 | 0.00 | 0.00 | 62 | 1014.7 |
| 20260508040237 | 54 | 103 | 0.0 | 3.0 | 0.00 | 0.00 | 0.00 | 61 | 1014.9 |
| 20260508035737 | 54 | 103 | 0.0 | 3.0 | 0.00 | 0.00 | 0.00 | 60 | 1014.8 |
| 20260508035258 | 54 | 91 | 0.0 | 4.0 | 0.00 | 0.00 | 0.00 | 60 | 1014.7 |
| 20260508034737 | 55 | 54 | 1.0 | 4.0 | 0.00 | 0.00 | 0.00 | 59 | 1014.8 |
| 20260508034258 | 55 | 29 | 2.0 | 4.0 | 0.00 | 0.00 | 0.00 | 59 | 1014.9 |
| 20260508033737 | 55 | 17 | 1.0 | 5.0 | 0.00 | 0.00 | 0.00 | 58 | 1015.0 |
| 20260508033237 | 55 | 10 | 2.0 | 7.0 | 0.00 | 0.00 | 0.00 | 58 | 1014.9 |
| 20260508032737 | 56 | 19 | 3.0 | 7.0 | 0.00 | 0.00 | 0.00 | 56 | 1015.0 |
| 20260508032237 | 56 | 6 | 2.0 | 5.0 | 0.00 | 0.00 | 0.00 | 55 | 1014.8 |
| 20260508031737 | 56 | 18 | 1.0 | 4.0 | 0.00 | 0.00 | 0.00 | 53 | 1014.7 |
| 20260508031237 | 56 | 31 | 2.0 | 7.0 | 0.00 | 0.00 | 0.00 | 53 | 1014.5 |
| 20260508030737 | 56 | 16 | 3.0 | 7.0 | 0.00 | 0.00 | 0.00 | 51 | 1014.3 |
| 20260508030237 | 57 | 26 | 1.0 | 4.0 | 0.00 | 0.00 | 0.00 | 51 | 1014.2 |
| 20260508025758 | 57 | 93 | 0.0 | 3.0 | 0.00 | 0.00 | 0.00 | 50 | 1013.6 |
| 20260508025237 | 57 | 36 | 0.0 | 2.0 | 0.00 | 0.00 | 0.00 | 48 | 1013.5 |
| 20260508024737 | 57 | 36 | 0.0 | 2.0 | 0.00 | 0.00 | 0.00 | 48 | 1013.4 |
| 20260508024237 | 57 | 36 | 0.0 | 3.0 | 0.00 | 0.00 | 0.00 | 49 | 1013.4 |
| 20260508023737 | 58 | 32 | 1.0 | 6.0 | 0.00 | 0.00 | 0.00 | 48 | 1013.3 |
| 20260508023237 | 58 | 4 | 3.0 | 6.0 | 0.00 | 0.00 | 0.00 | 47 | 1013.3 |
| 20260508022737 | 58 | 339 | 2.0 | 7.0 | 0.00 | 0.00 | 0.00 | 48 | 1013.3 |
| 20260508022237 | 58 | 4 | 3.0 | 7.0 | 0.00 | 0.00 | 0.00 | 48 | 1013.2 |
| 20260508021737 | 58 | 39 | 3.0 | 7.0 | 0.00 | 0.00 | 0.00 | 50 | 1013.0 |
| 20260508021237 | 58 | 48 | 4.0 | 7.0 | 0.00 | 0.00 | 0.00 | 50 | 1012.9 |
| 20260508020737 | 58 | 47 | 4.0 | 7.0 | 0.00 | 0.00 | 0.00 | 49 | 1013.0 |
| 20260508020237 | 58 | 28 | 3.0 | 7.0 | 0.00 | 0.00 | 0.00 | 49 | 1013.0 |
| 20260508015758 | 58 | 16 | 3.0 | 9.0 | 0.00 | 0.00 | 0.00 | 49 | 1013.1 |
| 20260508015237 | 59 | 12 | 3.0 | 9.0 | 0.00 | 0.00 | 0.00 | 48 | 1013.2 |
| 20260508014737 | 59 | 16 | 5.0 | 11.0 | 0.00 | 0.00 | 0.00 | 47 | 1013.2 |
| 20260508014237 | 59 | 15 | 5.0 | 11.0 | 0.00 | 0.00 | 0.00 | 46 | 1013.1 |
| 20260508013737 | 60 | 352 | 5.0 | 13.0 | 0.00 | 0.00 | 0.00 | 45 | 1013.0 |
| 20260508013237 | 60 | 4 | 6.0 | 13.0 | 0.00 | 0.00 | 0.00 | 44 | 1012.8 |
| 20260508012758 | 61 | -1 | 6.0 | 11.0 | 0.00 | 0.00 | 0.00 | 42 | 1012.6 |
| 20260508012237 | 62 | 16 | 6.0 | 14.0 | 0.00 | 0.00 | 0.00 | 38 | 1012.6 |
| 20260508011737 | 62 | 16 | 3.0 | 6.0 | 0.00 | 0.00 | 0.00 | 39 | 1012.4 |
| 20260508011237 | 63 | 12 | 1.0 | 3.0 | 0.00 | 0.00 | 0.00 | 37 | 1012.3 |
| 20260508010737 | 63 | 5 | 1.0 | 3.0 | 0.00 | 0.00 | 0.00 | 36 | 1012.2 |
| 20260508010237 | 63 | -1 | 1.0 | 3.0 | 0.00 | 0.00 | 0.00 | 35 | 1012.1 |
| 20260508005737 | 64 | 355 | 1.0 | 3.0 | 0.00 | 0.00 | 0.00 | 34 | 1012.0 |
| 20260508005237 | 64 | 360 | 1.0 | 6.0 | 0.00 | 0.00 | 0.00 | 33 | 1012.0 |
| 20260508004737 | 64 | 345 | 2.0 | 6.0 | 0.00 | 0.00 | 0.00 | 32 | 1011.9 |
| 20260508004237 | 65 | 345 | 1.0 | 4.0 | 0.00 | 0.00 | 0.00 | 32 | 1012.0 |
| 20260508003737 | 65 | 316 | 1.0 | 5.0 | 0.00 | 0.00 | 0.00 | 31 | 1011.8 |
| 20260508003237 | 65 | 332 | 2.0 | 5.0 | 0.00 | 0.00 | 0.00 | 30 | 1011.8 |
| 20260508002737 | 65 | 345 | 1.0 | 8.0 | 0.00 | 0.00 | 0.00 | 30 | 1011.8 |
| 20260508002237 | 66 | 341 | 4.0 | 10.0 | 0.00 | 0.00 | 0.00 | 29 | 1011.8 |
| 20260508001737 | 66 | 297 | 4.0 | 10.0 | 0.00 | 0.00 | 0.00 | 26 | 1011.9 |
| 20260508001237 | 66 | 289 | 4.0 | 8.0 | 0.00 | 0.00 | 0.00 | 26 | 1011.8 |
| 20260508000737 | 66 | 309 | 3.0 | 11.0 | 0.00 | 0.00 | 0.00 | 26 | 1011.8 |
| 20260508000237 | 67 | 317 | 4.0 | 12.0 | 0.00 | 0.00 | 0.00 | 25 | 1011.9 |
| 20260507235737 | 67 | 319 | 6.0 | 13.0 | 0.00 | 0.00 | 0.00 | 24 | 1011.9 |
| 20260507235237 | 68 | 292 | 4.0 | 13.0 | 0.00 | 0.00 | 0.00 | 23 | 1011.8 |
| 20260507234737 | 69 | 314 | 5.0 | 12.0 | 0.00 | 0.00 | 0.00 | 23 | 1011.7 |
| 20260507234237 | 70 | 291 | 4.0 | 12.0 | 0.00 | 0.00 | 0.00 | 22 | 1011.8 |
| 20260507233737 | 70 | 279 | 5.0 | 10.0 | 0.00 | 0.00 | 0.00 | 23 | 1011.9 |
| 20260507233237 | 70 | 310 | 4.0 | 11.0 | 0.00 | 0.00 | 0.00 | 24 | 1011.8 |
| 20260507232737 | 70 | 294 | 6.0 | 11.0 | 0.00 | 0.00 | 0.00 | 23 | 1011.7 |
| 20260507232237 | 70 | 287 | 5.0 | 9.0 | 0.00 | 0.00 | 0.00 | 23 | 1011.8 |
| 20260507231737 | 70 | 263 | 4.0 | 11.0 | 0.00 | 0.00 | 0.00 | 24 | 1011.8 |
| 20260507231237 | 70 | 293 | 5.0 | 15.0 | 0.00 | 0.00 | 0.00 | 22 | 1011.9 |
| 20260507230737 | 70 | 309 | 6.0 | 15.0 | 0.00 | 0.00 | 0.00 | 25 | 1011.8 |
| 20260507230237 | 70 | 312 | 4.0 | 11.0 | 0.00 | 0.00 | 0.00 | 25 | 1011.8 |
| 20260507225737 | 70 | 296 | 6.0 | 12.0 | 0.00 | 0.00 | 0.00 | 23 | 1011.9 |
| 20260507225237 | 70 | 313 | 4.0 | 14.0 | 0.00 | 0.00 | 0.00 | 25 | 1011.9 |
| 20260507224737 | 70 | 297 | 7.0 | 14.0 | 0.00 | 0.00 | 0.00 | 24 | 1011.8 |
| 20260507224237 | 70 | 293 | 5.0 | 11.0 | 0.00 | 0.00 | 0.00 | 24 | 1011.8 |
| 20260507223737 | 70 | 270 | 4.0 | 10.0 | 0.00 | 0.00 | 0.00 | 24 | 1011.7 |
| 20260507223237 | 70 | 316 | 6.0 | 14.0 | 0.00 | 0.00 | 0.00 | 24 | 1011.8 |
| 20260507222737 | 69 | 286 | 3.0 | 13.0 | 0.00 | 0.00 | 0.00 | 25 | 1011.7 |
| 20260507222237 | 69 | 312 | 7.0 | 13.0 | 0.00 | 0.00 | 0.00 | 26 | 1011.8 |
| 20260507221737 | 68 | 313 | 5.0 | 11.0 | 0.00 | 0.00 | 0.00 | 27 | 1011.8 |
| 20260507221237 | 69 | 295 | 5.0 | 12.0 | 0.00 | 0.00 | 0.00 | 25 | 1012.0 |
| 20260507220758 | 70 | 320 | 5.0 | 13.0 | 0.00 | 0.00 | 0.00 | 25 | 1012.1 |
| 20260507220237 | 70 | 303 | 5.0 | 13.0 | 0.00 | 0.00 | 0.00 | 25 | 1012.1 |
| 20260507215737 | 69 | 286 | 5.0 | 17.0 | 0.00 | 0.00 | 0.00 | 24 | 1012.2 |
| 20260507215237 | 69 | 324 | 6.0 | 17.0 | 0.00 | 0.00 | 0.00 | 25 | 1012.3 |
| 20260507214737 | 69 | 309 | 6.0 | 13.0 | 0.00 | 0.00 | 0.00 | 25 | 1012.4 |
| 20260507214237 | 70 | 312 | 7.0 | 13.0 | 0.00 | 0.00 | 0.00 | 24 | 1012.4 |
| 20260507213737 | 69 | 305 | 6.0 | 13.0 | 0.00 | 0.00 | 0.00 | 26 | 1012.4 |
| 20260507213237 | 69 | 326 | 7.0 | 16.0 | 0.00 | 0.00 | 0.00 | 26 | 1012.6 |
| 20260507212737 | 69 | 306 | 6.0 | 16.0 | 0.00 | 0.00 | 0.00 | 28 | 1012.6 |
| 20260507212237 | 69 | 329 | 7.0 | 13.0 | 0.00 | 0.00 | 0.00 | 26 | 1012.7 |
| 20260507211737 | 69 | 284 | 5.0 | 16.0 | 0.00 | 0.00 | 0.00 | 27 | 1012.8 |
| 20260507211258 | 69 | 336 | 8.0 | 16.0 | 0.00 | 0.00 | 0.00 | 26 | 1012.8 |
| 20260507210758 | 69 | 312 | 8.0 | 16.0 | 0.00 | 0.00 | 0.00 | 25 | 1012.8 |
| 20260507210237 | 69 | 335 | 7.0 | 16.0 | 0.00 | 0.00 | 0.00 | 26 | 1012.8 |
| 20260507205737 | 69 | 303 | 6.0 | 14.0 | 0.00 | 0.00 | 0.00 | 26 | 1012.9 |
| 20260507205237 | 68 | 301 | 6.0 | 14.0 | 0.00 | 0.00 | 0.00 | 27 | 1012.8 |
| 20260507204737 | 68 | 322 | 6.0 | 11.0 | 0.00 | 0.00 | 0.00 | 26 | 1013.0 |
| 20260507204237 | 69 | 280 | 5.0 | 13.0 | 0.00 | 0.00 | 0.00 | 26 | 1013.0 |
| 20260507203737 | 69 | 334 | 7.0 | 13.0 | 0.00 | 0.00 | 0.00 | 26 | 1013.1 |
| 20260507203237 | 69 | 289 | 7.0 | 18.0 | 0.00 | 0.00 | 0.00 | 27 | 1013.2 |
| 20260507202737 | 69 | 292 | 5.0 | 18.0 | 0.00 | 0.00 | 0.00 | 28 | 1013.2 |
| 20260507202237 | 69 | 288 | 4.0 | 12.0 | 0.00 | 0.00 | 0.00 | 27 | 1013.3 |
| 20260507201737 | 69 | -1 | 4.0 | 12.0 | 0.00 | 0.00 | 0.00 | 27 | 1013.4 |
| 20260507201237 | 68 | 300 | 6.0 | 14.0 | 0.00 | 0.00 | 0.00 | 27 | 1013.5 |
| 20260507200737 | 69 | 271 | 6.0 | 16.0 | 0.00 | 0.00 | 0.00 | 26 | 1013.5 |
| 20260507200237 | 68 | 304 | 7.0 | 16.0 | 0.00 | 0.00 | 0.00 | 27 | 1013.5 |
| 20260507195737 | 68 | 292 | 6.0 | 15.0 | 0.00 | 0.00 | 0.00 | 26 | 1013.5 |
| 20260507195258 | 68 | 296 | 6.0 | 15.0 | 0.00 | 0.00 | 0.00 | 28 | 1013.6 |
| 20260507194737 | 68 | 270 | 8.0 | 15.0 | 0.00 | 0.00 | 0.00 | 26 | 1013.6 |
| 20260507194237 | 68 | 221 | 6.0 | 15.0 | 0.00 | 0.00 | 0.00 | 27 | 1013.6 |
| 20260507193737 | 68 | 297 | 5.0 | 13.0 | 0.00 | 0.00 | 0.00 | 29 | 1013.6 |
| 20260507193237 | 68 | 262 | 6.0 | 15.0 | 0.00 | 0.00 | 0.00 | 29 | 1013.8 |
| 20260507192737 | 68 | 269 | 6.0 | 16.0 | 0.00 | 0.00 | 0.00 | 30 | 1013.9 |
| 20260507192237 | 68 | 288 | 7.0 | 16.0 | 0.00 | 0.00 | 0.00 | 29 | 1013.9 |
| 20260507191737 | 68 | 257 | 5.0 | 13.0 | 0.00 | 0.00 | 0.00 | 29 | 1014.1 |
| 20260507191237 | 67 | 295 | 6.0 | 14.0 | 0.00 | 0.00 | 0.00 | 30 | 1014.0 |
| 20260507190737 | 67 | 300 | 6.0 | 16.0 | 0.00 | 0.00 | 0.00 | 31 | 1014.0 |
| 20260507190237 | 67 | 316 | 7.0 | 16.0 | 0.00 | 0.00 | 0.00 | 30 | 1014.0 |
| 20260507185758 | 67 | 262 | 4.0 | 12.0 | 0.00 | 0.00 | 0.00 | 29 | 1014.1 |
| 20260507185237 | 68 | 245 | 4.0 | 12.0 | 0.00 | 0.00 | 0.00 | 28 | 1014.1 |
| 20260507184737 | 68 | 299 | 4.0 | 12.0 | 0.00 | 0.00 | 0.00 | 31 | 1014.3 |
| 20260507184237 | 68 | 298 | 4.0 | 9.0 | 0.00 | 0.00 | 0.00 | 30 | 1014.1 |
| 20260507183737 | 67 | 302 | 3.0 | 13.0 | 0.00 | 0.00 | 0.00 | 30 | 1014.2 |
| 20260507183258 | 67 | 268 | 3.0 | 11.0 | 0.00 | 0.00 | 0.00 | 28 | 1014.3 |
| 20260507182737 | 67 | 269 | 5.0 | 11.0 | 0.00 | 0.00 | 0.00 | 29 | 1014.4 |
| 20260507182237 | 67 | 274 | 3.0 | 9.0 | 0.00 | 0.00 | 0.00 | 29 | 1014.5 |
| 20260507181737 | 67 | 274 | 3.0 | 11.0 | 0.00 | 0.00 | 0.00 | 29 | 1014.5 |
| 20260507181258 | 67 | 249 | 3.0 | 11.0 | 0.00 | 0.00 | 0.00 | 30 | 1014.5 |
| 20260507180737 | 67 | 271 | 2.0 | 8.0 | 0.00 | 0.00 | 0.00 | 32 | 1014.5 |
| 20260507180237 | 67 | 284 | 3.0 | 9.0 | 0.00 | 0.00 | 0.00 | 30 | 1014.6 |
| 20260507175737 | 66 | 303 | 4.0 | 9.0 | 0.00 | 0.00 | 0.00 | 31 | 1014.6 |
| 20260507175237 | 66 | 292 | 3.0 | 8.0 | 0.00 | 0.00 | 0.00 | 28 | 1014.6 |
| 20260507174737 | 66 | 303 | 3.0 | 9.0 | 0.00 | 0.00 | 0.00 | 32 | 1014.7 |
| 20260507174237 | 65 | 274 | 3.0 | 10.0 | 0.00 | 0.00 | 0.00 | 31 | 1014.8 |
| 20260507173737 | 64 | 300 | 4.0 | 9.0 | 0.00 | 0.00 | 0.00 | 34 | 1014.9 |
| 20260507173237 | 64 | 292 | 4.0 | 11.0 | 0.00 | 0.00 | 0.00 | 32 | 1015.0 |
| 20260507172758 | 64 | 284 | 4.0 | 11.0 | 0.00 | 0.00 | 0.00 | 34 | 1015.0 |
| 20260507172237 | 64 | 258 | 3.0 | 12.0 | 0.00 | 0.00 | 0.00 | 36 | 1015.1 |
| 20260507171737 | 63 | 266 | 3.0 | 9.0 | 0.00 | 0.00 | 0.00 | 34 | 1015.2 |
| 20260507171237 | 63 | 267 | 3.0 | 10.0 | 0.00 | 0.00 | 0.00 | 35 | 1015.3 |
| 20260507170758 | 63 | 248 | 4.0 | 10.0 | 0.00 | 0.00 | 0.00 | 34 | 1015.3 |
| 20260507170237 | 63 | 317 | 3.0 | 9.0 | 0.00 | 0.00 | 0.00 | 34 | 1015.3 |
| 20260507165737 | 63 | 284 | 2.0 | 9.0 | 0.00 | 0.00 | 0.00 | 32 | 1015.4 |
| 20260507165237 | 63 | 249 | 3.0 | 7.0 | 0.00 | 0.00 | 0.00 | 32 | 1015.5 |
| 20260507164758 | 63 | 288 | 2.0 | 7.0 | 0.00 | 0.00 | 0.00 | 31 | 1015.4 |
| 20260507164258 | 63 | 274 | 2.0 | 7.0 | 0.00 | 0.00 | 0.00 | 32 | 1015.4 |
| 20260507163737 | 63 | 285 | 2.0 | 9.0 | 0.00 | 0.00 | 0.00 | 32 | 1015.3 |
| 20260507163237 | 63 | 274 | 3.0 | 9.0 | 0.00 | 0.00 | 0.00 | 34 | 1015.2 |
| 20260507162737 | 62 | 249 | 3.0 | 10.0 | 0.00 | 0.00 | 0.00 | 34 | 1015.2 |
| 20260507162237 | 62 | 260 | 4.0 | 10.0 | 0.00 | 0.00 | 0.00 | 35 | 1015.2 |
| 20260507161737 | 61 | 239 | 4.0 | 9.0 | 0.00 | 0.00 | 0.00 | 35 | 1015.2 |
| 20260507161237 | 61 | 263 | 3.0 | 12.0 | 0.00 | 0.00 | 0.00 | 37 | 1015.4 |
| 20260507160737 | 60 | 240 | 5.0 | 12.0 | 0.00 | 0.00 | 0.00 | 36 | 1015.5 |
| 20260507160237 | 60 | 260 | 3.0 | 10.0 | 0.00 | 0.00 | 0.00 | 39 | 1015.6 |
| 20260507155737 | 60 | 194 | 4.0 | 10.0 | 0.00 | 0.00 | 0.00 | 38 | 1015.7 |
| 20260507155237 | 59 | 281 | 4.0 | 11.0 | 0.00 | 0.00 | 0.00 | 38 | 1015.7 |
| 20260507154737 | 59 | 261 | 4.0 | 11.0 | 0.00 | 0.00 | 0.00 | 37 | 1015.8 |
| 20260507154237 | 58 | 275 | 4.0 | 9.0 | 0.00 | 0.00 | 0.00 | 39 | 1015.8 |
| 20260507153737 | 58 | 242 | 3.0 | 10.0 | 0.00 | 0.00 | 0.00 | 40 | 1015.8 |
| 20260507153237 | 58 | 229 | 4.0 | 10.0 | 0.00 | 0.00 | 0.00 | 38 | 1015.9 |
| 20260507152737 | 57 | 224 | 4.0 | 13.0 | 0.00 | 0.00 | 0.00 | 39 | 1015.8 |
| 20260507152237 | 57 | 269 | 4.0 | 13.0 | 0.00 | 0.00 | 0.00 | 38 | 1015.8 |
| 20260507151737 | 57 | 257 | 4.0 | 9.0 | 0.00 | 0.00 | 0.00 | 40 | 1015.8 |
| 20260507151237 | 56 | 278 | 4.0 | 12.0 | 0.00 | 0.00 | 0.00 | 41 | 1015.8 |
| 20260507150737 | 56 | 253 | 3.0 | 12.0 | 0.00 | 0.00 | 0.00 | 42 | 1015.7 |
| 20260507150237 | 56 | 236 | 4.0 | 11.0 | 0.00 | 0.00 | 0.00 | 41 | 1015.7 |
| 20260507145737 | 55 | 270 | 4.0 | 11.0 | 0.00 | 0.00 | 0.00 | 42 | 1015.7 |
| 20260507145237 | 54 | 265 | 3.0 | 13.0 | 0.00 | 0.00 | 0.00 | 43 | 1015.8 |
| 20260507144737 | 54 | 243 | 4.0 | 14.0 | 0.00 | 0.00 | 0.00 | 43 | 1015.7 |
| 20260507144237 | 54 | 251 | 5.0 | 14.0 | 0.00 | 0.00 | 0.00 | 43 | 1015.8 |
| 20260507143758 | 53 | 250 | 3.0 | 14.0 | 0.00 | 0.00 | 0.00 | 44 | 1015.8 |
| 20260507143258 | 53 | 246 | 3.0 | 10.0 | 0.00 | 0.00 | 0.00 | 45 | 1015.9 |
| 20260507142737 | 52 | 219 | 4.0 | 13.0 | 0.00 | 0.00 | 0.00 | 44 | 1015.8 |
| 20260507142237 | 52 | 244 | 5.0 | 13.0 | 0.00 | 0.00 | 0.00 | 44 | 1015.7 |
| 20260507141737 | 51 | 264 | 4.0 | 12.0 | 0.00 | 0.00 | 0.00 | 44 | 1015.7 |
| 20260507141237 | 51 | 250 | 6.0 | 12.0 | 0.00 | 0.00 | 0.00 | 44 | 1015.7 |
| 20260507140737 | 51 | 245 | 3.0 | 14.0 | 0.00 | 0.00 | 0.00 | 44 | 1015.7 |
| 20260507140237 | 51 | 215 | 5.0 | 14.0 | 0.00 | 0.00 | 0.00 | 44 | 1015.6 |
| 20260507135737 | 50 | 264 | 4.0 | 10.0 | 0.00 | 0.00 | 0.00 | 45 | 1015.7 |
| 20260507135258 | 50 | 283 | 3.0 | 10.0 | 0.00 | 0.00 | 0.00 | 45 | 1015.7 |
| 20260507134737 | 49 | 262 | 4.0 | 10.0 | 0.00 | 0.00 | 0.00 | 47 | 1015.6 |
| 20260507134237 | 49 | 222 | 4.0 | 9.0 | 0.00 | 0.00 | 0.00 | 47 | 1015.5 |
| 20260507133737 | 48 | 249 | 4.0 | 10.0 | 0.00 | 0.00 | 0.00 | 48 | 1015.5 |
| 20260507133237 | 48 | 250 | 3.0 | 10.0 | 0.00 | 0.00 | 0.00 | 47 | 1015.5 |
| 20260507132737 | 47 | 244 | 4.0 | 9.0 | 0.00 | 0.00 | 0.00 | 48 | 1015.5 |
| 20260507132237 | 47 | 266 | 3.0 | 8.0 | 0.00 | 0.00 | 0.00 | 48 | 1015.4 |
| 20260507131737 | 46 | 246 | 3.0 | 7.0 | 0.00 | 0.00 | 0.00 | 49 | 1015.4 |
| 20260507131237 | 46 | 268 | 3.0 | 8.0 | 0.00 | 0.00 | 0.00 | 49 | 1015.4 |
| 20260507130737 | 45 | 222 | 4.0 | 11.0 | 0.00 | 0.00 | 0.00 | 50 | 1015.3 |
| 20260507130237 | 45 | 275 | 2.0 | 8.0 | 0.00 | 0.00 | 0.00 | 51 | 1015.2 |
| 20260507125737 | 44 | 227 | 3.0 | 8.0 | 0.00 | 0.00 | 0.00 | 51 | 1015.1 |
| 20260507125237 | 44 | 239 | 3.0 | 8.0 | 0.00 | 0.00 | 0.00 | 51 | 1015.1 |
| 20260507124737 | 43 | 217 | 3.0 | 8.0 | 0.00 | 0.00 | 0.00 | 51 | 1015.1 |
| 20260507124237 | 43 | 201 | 2.0 | 6.0 | 0.00 | 0.00 | 0.00 | 51 | 1015.1 |
| 20260507123758 | 42 | 224 | 3.0 | 7.0 | 0.00 | 0.00 | 0.00 | 52 | 1015.1 |
| 20260507123237 | 42 | 243 | 3.0 | 7.0 | 0.00 | 0.00 | 0.00 | 52 | 1015.0 |
| 20260507122737 | 41 | 280 | 2.0 | 7.0 | 0.00 | 0.00 | 0.00 | 53 | 1014.9 |
| 20260507122237 | 41 | 240 | 3.0 | 7.0 | 0.00 | 0.00 | 0.00 | 53 | 1014.9 |
| 20260507121737 | 41 | 219 | 3.0 | 6.0 | 0.00 | 0.00 | 0.00 | 54 | 1014.8 |
| 20260507121237 | 40 | 247 | 1.0 | 5.0 | 0.00 | 0.00 | 0.00 | 55 | 1014.9 |
| 20260507120737 | 40 | 231 | 3.0 | 7.0 | 0.00 | 0.00 | 0.00 | 55 | 1014.9 |
| 20260507120237 | 40 | 236 | 2.0 | 7.0 | 0.00 | 0.00 | 0.00 | 55 | 1014.9 |
| 20260507115737 | 40 | 234 | 2.0 | 5.0 | 0.00 | 0.00 | 0.00 | 55 | 1014.9 |
| 20260507115237 | 40 | 250 | 2.0 | 5.0 | 0.00 | 0.00 | 0.00 | 55 | 1014.7 |
| 20260507114737 | 40 | 240 | 1.0 | 6.0 | 0.00 | 0.00 | 0.00 | 55 | 1014.8 |
| 20260507114237 | 40 | 223 | 2.0 | 6.0 | 0.00 | 0.00 | 0.00 | 56 | 1014.8 |
| 20260507113737 | 40 | 220 | 3.0 | 6.0 | 0.00 | 0.00 | 0.00 | 56 | 1014.7 |
| 20260507113237 | 40 | 248 | 2.0 | 6.0 | 0.00 | 0.00 | 0.00 | 55 | 1014.7 |
| 20260507112737 | 40 | 255 | 2.0 | 6.0 | 0.00 | 0.00 | 0.00 | 55 | 1014.6 |
| 20260507112237 | 40 | 263 | 2.0 | 6.0 | 0.00 | 0.00 | 0.00 | 56 | 1014.7 |
| 20260507111737 | 40 | 256 | 3.0 | 6.0 | 0.00 | 0.00 | 0.00 | 55 | 1014.6 |
| 20260507111237 | 40 | 271 | 2.0 | 8.0 | 0.00 | 0.00 | 0.00 | 55 | 1014.6 |
| 20260507110737 | 39 | 236 | 3.0 | 8.0 | 0.00 | 0.00 | 0.00 | 56 | 1014.5 |
| 20260507110237 | 39 | 210 | 3.0 | 9.0 | 0.00 | 0.00 | 0.00 | 56 | 1014.7 |
| 20260507105737 | 39 | 218 | 2.0 | 9.0 | 0.00 | 0.00 | 0.00 | 57 | 1014.7 |
| 20260507105237 | 39 | 222 | 3.0 | 8.0 | 0.00 | 0.00 | 0.00 | 57 | 1014.8 |
| 20260507104737 | 39 | 238 | 3.0 | 7.0 | 0.00 | 0.00 | 0.00 | 57 | 1014.8 |
| 20260507104258 | 39 | 247 | 1.0 | 7.0 | 0.00 | 0.00 | 0.00 | 57 | 1014.9 |
| 20260507103758 | 39 | 240 | 2.0 | 8.0 | 0.00 | 0.00 | 0.00 | 57 | 1014.9 |
| 20260507103237 | 39 | 243 | 3.0 | 8.0 | 0.00 | 0.00 | 0.00 | 57 | 1014.9 |
| 20260507102737 | 39 | 264 | 2.0 | 6.0 | 0.00 | 0.00 | 0.00 | 57 | 1014.9 |
| 20260507102237 | 39 | 254 | 2.0 | 7.0 | 0.00 | 0.00 | 0.00 | 57 | 1015.0 |
| 20260507101758 | 39 | 237 | 2.0 | 7.0 | 0.00 | 0.00 | 0.00 | 58 | 1015.1 |
| 20260507101258 | 39 | 247 | 2.0 | 6.0 | 0.00 | 0.00 | 0.00 | 58 | 1015.1 |
| 20260507100737 | 39 | 259 | 1.0 | 6.0 | 0.00 | 0.00 | 0.00 | 58 | 1015.2 |
| 20260507100237 | 39 | 255 | 2.0 | 6.0 | 0.00 | 0.00 | 0.00 | 58 | 1015.3 |
| 20260507095758 | 39 | 240 | 2.0 | 6.0 | 0.00 | 0.00 | 0.00 | 58 | 1015.2 |
| 20260507095237 | 39 | 208 | 1.0 | 6.0 | 0.00 | 0.00 | 0.00 | 58 | 1015.2 |
| 20260507094737 | 38 | 267 | 2.0 | 6.0 | 0.00 | 0.00 | 0.00 | 59 | 1015.2 |
| 20260507094237 | 38 | 255 | 1.0 | 8.0 | 0.00 | 0.00 | 0.00 | 60 | 1015.2 |
| 20260507093737 | 38 | 255 | 3.0 | 8.0 | 0.00 | 0.00 | 0.00 | 61 | 1015.2 |
| 20260507093237 | 37 | 230 | 3.0 | 7.0 | 0.00 | 0.00 | 0.00 | 62 | 1015.2 |
| 20260507092737 | 37 | 198 | 3.0 | 6.0 | 0.00 | 0.00 | 0.00 | 64 | 1015.2 |
| 20260507092237 | 37 | 189 | 2.0 | 6.0 | 0.00 | 0.00 | 0.00 | 65 | 1015.3 |
| 20260507091737 | 36 | 235 | 1.0 | 5.0 | 0.00 | 0.00 | 0.00 | 66 | 1015.3 |
| 20260507091237 | 36 | 220 | 0.0 | 3.0 | 0.00 | 0.00 | 0.00 | 67 | 1015.3 |
| 20260507090737 | 36 | 201 | 1.0 | 4.0 | 0.00 | 0.00 | 0.00 | 67 | 1015.4 |
| 20260507090237 | 36 | 167 | 1.0 | 4.0 | 0.00 | 0.00 | 0.00 | 67 | 1015.3 |
| 20260507085737 | 36 | 177 | 1.0 | 3.0 | 0.00 | 0.00 | 0.00 | 68 | 1015.3 |
| 20260507085237 | 36 | 162 | 1.0 | 3.0 | 0.00 | 0.00 | 0.00 | 68 | 1015.3 |
| 20260507084758 | 36 | 190 | 1.0 | 4.0 | 0.00 | 0.00 | 0.00 | 69 | 1015.3 |
| 20260507084237 | 36 | 171 | 1.0 | 4.0 | 0.00 | 0.00 | 0.00 | 70 | 1015.3 |
| 20260507083737 | 36 | 226 | 1.0 | 5.0 | 0.00 | 0.00 | 0.00 | 71 | 1015.4 |
| 20260507083237 | 36 | 211 | 1.0 | 5.0 | 0.00 | 0.00 | 0.00 | 72 | 1015.5 |
| 20260507082737 | 35 | 182 | 1.0 | 6.0 | 0.00 | 0.00 | 0.00 | 73 | 1015.6 |
| 20260507082237 | 35 | 248 | 1.0 | 6.0 | 0.00 | 0.00 | 0.00 | 74 | 1015.7 |
| 20260507081737 | 35 | 197 | 1.0 | 6.0 | 0.00 | 0.00 | 0.00 | 75 | 1015.8 |
| 20260507081237 | 35 | 176 | 1.0 | 6.0 | 0.00 | 0.00 | 0.00 | 76 | 1015.8 |
| 20260507080737 | 35 | 230 | 2.0 | 6.0 | 0.00 | 0.00 | 0.00 | 77 | 1015.8 |
| 20260507080237 | 35 | 217 | 2.0 | 5.0 | 0.00 | 0.00 | 0.00 | 77 | 1015.9 |
| 20260507075737 | 35 | 266 | 1.0 | 5.0 | 0.00 | 0.00 | 0.00 | 77 | 1016.0 |
| 20260507075258 | 35 | 241 | 1.0 | 5.0 | 0.00 | 0.00 | 0.00 | 77 | 1016.1 |
| 20260507074737 | 35 | 264 | 1.0 | 5.0 | 0.00 | 0.00 | 0.00 | 77 | 1015.9 |
| 20260507074237 | 35 | 215 | 2.0 | 6.0 | 0.00 | 0.00 | 0.00 | 77 | 1016.1 |
| 20260507073737 | 35 | 229 | 2.0 | 6.0 | 0.00 | 0.00 | 0.00 | 78 | 1016.2 |
| 20260507073237 | 34 | 249 | 2.0 | 5.0 | 0.00 | 0.00 | 0.00 | 78 | 1016.3 |
| 20260507072737 | 34 | 257 | 2.0 | 6.0 | 0.00 | 0.00 | 0.00 | 79 | 1016.3 |
| 20260507072258 | 34 | 267 | 1.0 | 4.0 | 0.00 | 0.00 | 0.00 | 79 | 1016.3 |
| 20260507071737 | 34 | 238 | 1.0 | 4.0 | 0.00 | 0.00 | 0.00 | 80 | 1016.4 |
| 20260507071237 | 34 | 204 | 1.0 | 5.0 | 0.00 | 0.00 | 0.00 | 80 | 1016.3 |
| 20260507070737 | 34 | 216 | 1.0 | 5.0 | 0.00 | 0.00 | 0.00 | 81 | 1016.4 |
| 20260507070237 | 34 | 192 | 1.0 | 6.0 | 0.00 | 0.00 | 0.00 | 81 | 1016.4 |
| 20260507065758 | 34 | 223 | 2.0 | 6.0 | 0.00 | 0.00 | 0.00 | 82 | 1016.4 |